| time (UTC) | temp F | wind direction | speed knots | gust knots | rain 1hr in | rain 24hr in | rain mn in | humidity % | barometer mb |
| 20260506203019 | 64 | 87 | 1.7 | 3.5 | 0.00 | 0.00 | 0.00 | 63 | 1011.8 |
| 20260506202007 | 64 | 86 | 2.6 | 4.3 | 0.00 | 0.00 | 0.00 | 63 | 1011.7 |
| 20260506201009 | 64 | 69 | 2.6 | 5.2 | 0.00 | 0.00 | 0.00 | 62 | 1011.5 |
| 20260506200022 | 64 | 95 | 3.5 | 5.2 | 0.00 | 0.00 | 0.00 | 61 | 1011.5 |
| 20260506195008 | 64 | 96 | 2.6 | 5.2 | 0.00 | 0.00 | 0.00 | 62 | 1011.4 |
| 20260506194009 | 64 | 71 | 3.5 | 6.1 | 0.00 | 0.00 | 0.00 | 62 | 1011.3 |
| 20260506193007 | 64 | 96 | 3.5 | 6.1 | 0.00 | 0.00 | 0.00 | 62 | 1011.2 |
| 20260506192009 | 64 | 97 | 3.5 | 6.1 | 0.00 | 0.00 | 0.00 | 62 | 1011.0 |
| 20260506191007 | 64 | 82 | 4.3 | 7.0 | 0.00 | 0.00 | 0.00 | 61 | 1011.0 |
| 20260506190026 | 65 | 92 | 4.3 | 7.0 | 0.00 | 0.00 | 0.00 | 62 | 1010.9 |
| 20260506185008 | 65 | 87 | 4.3 | 7.0 | 0.00 | 0.00 | 0.00 | 61 | 1010.8 |
| 20260506183006 | 65 | 99 | 4.3 | 6.1 | 0.00 | 0.00 | 0.00 | 59 | 1010.7 |
| 20260506182008 | 65 | 111 | 4.3 | 7.8 | 0.00 | 0.00 | 0.00 | 59 | 1010.6 |
| 20260506181025 | 65 | 112 | 5.2 | 7.8 | 0.00 | 0.00 | 0.00 | 58 | 1010.5 |
| 20260506180009 | 65 | 116 | 5.2 | 9.6 | 0.00 | 0.00 | 0.00 | 58 | 1010.4 |
| 20260506175009 | 65 | 120 | 7.0 | 10.4 | 0.00 | 0.00 | 0.00 | 57 | 1010.4 |
| 20260506174008 | 66 | 95 | 5.2 | 7.8 | 0.00 | 0.00 | 0.00 | 58 | 1010.4 |
| 20260506173019 | 67 | 82 | 6.1 | 10.4 | 0.00 | 0.00 | 0.00 | 56 | 1010.5 |
| 20260506172008 | 67 | 74 | 7.0 | 10.4 | 0.00 | 0.00 | 0.00 | 55 | 1010.5 |
| 20260506170009 | 68 | 95 | 7.8 | 12.2 | 0.00 | 0.00 | 0.00 | 55 | 1010.6 |
| 20260506165008 | 69 | 97 | 6.1 | 10.4 | 0.00 | 0.00 | 0.00 | 52 | 1010.8 |
| 20260506164008 | 68 | 94 | 6.1 | 9.6 | 0.00 | 0.00 | 0.00 | 53 | 1010.6 |
| 20260506163019 | 68 | 92 | 6.1 | 9.6 | 0.00 | 0.00 | 0.00 | 53 | 1010.7 |
| 20260506162007 | 67 | 98 | 7.0 | 11.3 | 0.00 | 0.00 | 0.00 | 51 | 1010.7 |
| 20260506161009 | 68 | 96 | 7.0 | 12.2 | 0.00 | 0.00 | 0.00 | 53 | 1010.6 |
| 20260506160032 | 68 | 113 | 7.0 | 10.4 | 0.00 | 0.00 | 0.00 | 53 | 1010.6 |
| 20260506155008 | 67 | 103 | 6.1 | 9.6 | 0.00 | 0.00 | 0.00 | 53 | 1010.6 |
| 20260506154008 | 68 | 83 | 7.0 | 12.2 | 0.00 | 0.00 | 0.00 | 55 | 1010.6 |
| 20260506153007 | 69 | 89 | 9.6 | 14.8 | 0.00 | 0.00 | 0.00 | 53 | 1010.5 |
| 20260506152007 | 69 | 106 | 9.6 | 15.6 | 0.00 | 0.00 | 0.00 | 52 | 1010.3 |
| 20260506151010 | 67 | 103 | 9.6 | 13.9 | 0.00 | 0.00 | 0.00 | 55 | 1010.1 |
| 20260506145008 | 67 | 116 | 5.2 | 7.8 | 0.00 | 0.00 | 0.00 | 54 | 1010.8 |
| 20260506144008 | 68 | 120 | 5.2 | 8.7 | 0.00 | 0.00 | 0.00 | 55 | 1011.0 |
| 20260506143008 | 68 | 95 | 7.0 | 10.4 | 0.00 | 0.00 | 0.00 | 55 | 1010.8 |
| 20260506142008 | 67 | 119 | 6.1 | 11.3 | 0.00 | 0.00 | 0.00 | 57 | 1011.0 |
| 20260506141007 | 67 | 115 | 7.8 | 13.0 | 0.00 | 0.00 | 0.00 | 56 | 1010.9 |
| 20260506140012 | 67 | 114 | 7.8 | 12.2 | 0.00 | 0.00 | 0.00 | 56 | 1010.9 |
| 20260506135007 | 67 | 105 | 9.6 | 14.8 | 0.00 | 0.00 | 0.00 | 57 | 1010.9 |
| 20260506134008 | 68 | 113 | 10.4 | 16.5 | 0.00 | 0.00 | 0.00 | 56 | 1010.9 |
| 20260506133008 | 69 | 114 | 7.8 | 13.0 | 0.00 | 0.00 | 0.00 | 54 | 1010.9 |
| 20260506132007 | 69 | 122 | 8.7 | 13.9 | 0.00 | 0.00 | 0.00 | 51 | 1011.0 |
| 20260506131008 | 70 | 117 | 9.6 | 13.9 | 0.00 | 0.00 | 0.00 | 47 | 1011.0 |
| 20260506130024 | 71 | 128 | 9.6 | 14.8 | 0.00 | 0.00 | 0.00 | 46 | 1011.1 |
| 20260506125006 | 70 | 131 | 10.4 | 15.6 | 0.00 | 0.00 | 0.00 | 48 | 1011.1 |
| 20260506124008 | 70 | 124 | 10.4 | 16.5 | 0.00 | 0.00 | 0.00 | 49 | 1011.2 |
| 20260506123020 | 70 | 130 | 9.6 | 13.0 | 0.00 | 0.00 | 0.00 | 47 | 1011.2 |
| 20260506121007 | 70 | 122 | 8.7 | 13.0 | 0.00 | 0.00 | 0.00 | 49 | 1011.3 |
| 20260506120011 | 71 | 119 | 7.8 | 13.0 | 0.00 | 0.00 | 0.00 | 48 | 1011.4 |
| 20260506114010 | 70 | 115 | 8.7 | 13.0 | 0.00 | 0.00 | 0.00 | 48 | 1011.5 |
| 20260506113009 | 71 | 115 | 8.7 | 13.0 | 0.00 | 0.00 | 0.00 | 48 | 1011.5 |
| 20260506112021 | 71 | 114 | 7.8 | 12.2 | 0.00 | 0.00 | 0.00 | 46 | 1011.6 |
| 20260506111008 | 70 | 121 | 7.8 | 12.2 | 0.00 | 0.00 | 0.00 | 47 | 1011.5 |
| 20260506110019 | 70 | 114 | 7.8 | 12.2 | 0.00 | 0.00 | 0.00 | 44 | 1011.5 |
| 20260506105008 | 70 | 109 | 7.8 | 11.3 | 0.00 | 0.00 | 0.00 | 43 | 1011.6 |
| 20260506104008 | 71 | 120 | 7.8 | 12.2 | 0.00 | 0.00 | 0.00 | 43 | 1011.7 |
| 20260506103021 | 71 | 111 | 7.8 | 12.2 | 0.00 | 0.00 | 0.00 | 41 | 1011.7 |
| 20260506102008 | 72 | 138 | 6.1 | 9.6 | 0.00 | 0.00 | 0.00 | 41 | 1011.7 |
| 20260506100010 | 72 | 134 | 4.3 | 7.8 | 0.00 | 0.00 | 0.00 | 41 | 1011.7 |
| 20260506094008 | 71 | 131 | 4.3 | 7.0 | 0.00 | 0.00 | 0.00 | 44 | 1011.7 |
| 20260506092008 | 71 | 133 | 3.5 | 6.1 | 0.00 | 0.00 | 0.00 | 44 | 1011.7 |
| 20260506090025 | 71 | 175 | 2.6 | 4.3 | 0.00 | 0.00 | 0.00 | 45 | 1011.7 |
| 20260506085008 | 70 | 219 | 2.6 | 4.3 | 0.00 | 0.00 | 0.00 | 48 | 1011.7 |
| 20260506084008 | 70 | 198 | 2.6 | 5.2 | 0.00 | 0.00 | 0.00 | 49 | 1011.8 |
| 20260506083014 | 68 | 215 | 0.9 | 2.6 | 0.00 | 0.00 | 0.00 | 51 | 1011.9 |
| 20260506082008 | 68 | 287 | 1.7 | 3.5 | 0.00 | 0.00 | 0.00 | 51 | 1011.8 |
| 20260506081009 | 68 | 285 | 1.7 | 3.5 | 0.00 | 0.00 | 0.00 | 54 | 1011.8 |
| 20260506072009 | 64 | 276 | 3.5 | 6.1 | 0.00 | 0.00 | 0.00 | 59 | 1011.8 |
| 20260506071008 | 63 | 309 | 3.5 | 7.0 | 0.00 | 0.00 | 0.00 | 59 | 1011.8 |
| 20260506061008 | 59 | 303 | 5.2 | 8.7 | 0.00 | 0.00 | 0.00 | 68 | 1011.5 |
| 20260506051008 | 57 | 308 | 5.2 | 8.7 | 0.00 | 0.00 | 0.00 | 76 | 1011.2 |
| 20260506044008 | 57 | 283 | 3.5 | 5.2 | 0.00 | 0.00 | 0.00 | 76 | 1011.2 |
| 20260506043009 | 57 | 271 | 4.3 | 6.1 | 0.00 | 0.00 | 0.00 | 76 | 1011.2 |
| 20260506042028 | 57 | 277 | 4.3 | 7.0 | 0.00 | 0.00 | 0.00 | 75 | 1011.0 |
| 20260506041010 | 58 | 284 | 3.5 | 5.2 | 0.00 | 0.00 | 0.00 | 74 | 1010.9 |
| 20260506040034 | 58 | 281 | 2.6 | 4.3 | 0.00 | 0.00 | 0.00 | 73 | 1010.8 |
| 20260506035008 | 58 | 306 | 4.3 | 6.1 | 0.00 | 0.00 | 0.00 | 73 | 1010.9 |
| 20260506034008 | 59 | 311 | 4.3 | 7.0 | 0.00 | 0.00 | 0.00 | 72 | 1010.9 |
| 20260506033014 | 59 | 313 | 3.5 | 6.1 | 0.00 | 0.00 | 0.00 | 71 | 1010.9 |
| 20260506032007 | 59 | 312 | 3.5 | 5.2 | 0.00 | 0.00 | 0.00 | 70 | 1011.0 |
| 20260506031009 | 59 | 337 | 3.5 | 5.2 | 0.00 | 0.00 | 0.00 | 70 | 1011.1 |
| 20260506030028 | 59 | 336 | 3.5 | 6.1 | 0.00 | 0.00 | 0.00 | 71 | 1011.1 |
| 20260506025008 | 59 | 318 | 4.3 | 7.0 | 0.00 | 0.00 | 0.00 | 70 | 1011.1 |
| 20260506024008 | 60 | 309 | 4.3 | 7.8 | 0.00 | 0.00 | 0.00 | 69 | 1011.1 |
| 20260506023017 | 60 | 301 | 2.6 | 5.2 | 0.00 | 0.00 | 0.00 | 68 | 1011.1 |
| 20260506022011 | 59 | 263 | 3.5 | 5.2 | 0.00 | 0.00 | 0.00 | 69 | 1011.1 |
| 20260506021008 | 59 | 268 | 2.6 | 5.2 | 0.00 | 0.00 | 0.00 | 68 | 1011.0 |
| 20260506020031 | 60 | 272 | 3.5 | 4.3 | 0.00 | 0.00 | 0.00 | 67 | 1011.0 |
| 20260506015007 | 60 | 284 | 4.3 | 7.0 | 0.00 | 0.00 | 0.00 | 67 | 1010.9 |
| 20260506013011 | 60 | 309 | 4.3 | 7.0 | 0.00 | 0.00 | 0.00 | 64 | 1010.9 |
| 20260506012009 | 60 | 316 | 1.7 | 3.5 | 0.00 | 0.00 | 0.00 | 62 | 1010.9 |
| 20260506011008 | 61 | 315 | 1.7 | 2.6 | 0.00 | 0.00 | 0.00 | 61 | 1011.0 |
| 20260506010009 | 60 | 274 | 1.7 | 2.6 | 0.00 | 0.00 | 0.00 | 62 | 1011.1 |
| 20260506005009 | 61 | 270 | 1.7 | 3.5 | 0.00 | 0.00 | 0.00 | 62 | 1011.2 |
| 20260506004008 | 61 | 244 | 1.7 | 2.6 | 0.00 | 0.00 | 0.00 | 61 | 1011.3 |
| 20260506003026 | 61 | 228 | 1.7 | 3.5 | 0.00 | 0.00 | 0.00 | 61 | 1011.4 |
| 20260506002007 | 62 | 354 | 0.0 | 0.9 | 0.00 | 0.00 | 0.00 | 59 | 1011.5 |
| 20260506001009 | 62 | 1 | 0.9 | 2.6 | 0.00 | 0.00 | 0.00 | 58 | 1011.5 |
| 20260505235008 | 62 | 20 | 1.7 | 3.5 | 0.00 | 0.00 | 0.00 | 57 | 1011.6 |
| 20260505234008 | 62 | 8 | 1.7 | 3.5 | 0.00 | 0.00 | 0.00 | 57 | 1011.6 |
| 20260505233011 | 62 | 0 | 1.7 | 2.6 | 0.00 | 0.00 | 0.00 | 57 | 1011.6 |
| 20260505232006 | 62 | 14 | 2.6 | 5.2 | 0.00 | 0.00 | 0.00 | 57 | 1011.6 |
| 20260505231007 | 62 | 33 | 3.5 | 5.2 | 0.00 | 0.00 | 0.00 | 57 | 1011.5 |
| 20260505225007 | 63 | 47 | 6.1 | 10.4 | 0.00 | 0.00 | 0.00 | 58 | 1011.3 |
| 20260505224008 | 63 | 36 | 6.1 | 9.6 | 0.00 | 0.00 | 0.00 | 58 | 1011.3 |
| 20260505223007 | 63 | 23 | 6.1 | 11.3 | 0.00 | 0.00 | 0.00 | 58 | 1011.2 |
| 20260505220010 | 64 | 29 | 7.8 | 14.8 | 0.00 | 0.00 | 0.00 | 59 | 1011.1 |
| 20260505213011 | 64 | 42 | 10.4 | 16.5 | 0.00 | 0.00 | 0.00 | 60 | 1011.0 |
| 20260505211007 | 64 | 46 | 13.0 | 20.9 | 0.00 | 0.00 | 0.00 | 62 | 1011.1 |
| 20260505210011 | 64 | 45 | 11.3 | 19.1 | 0.00 | 0.00 | 0.00 | 65 | 1010.9 |
| 20260505205011 | 65 | 46 | 11.3 | 18.2 | 0.00 | 0.00 | 0.00 | 68 | 1010.8 |
| 20260505204015 | 65 | 47 | 12.2 | 19.1 | 0.00 | 0.00 | 0.00 | 69 | 1010.7 |